Location: Juzet
(42.9779°N, 0.7597°E)
Time: 17:07:06
(UTC+00:00)

Cosmos 1850 Rocket - Pass Details

Date: 14 July 2020
Orbit: 755 x 785 km, 74.0° (Epoch: 13 August)

Event Time Altitude Azimuth Distance (km) Brightness Sun altitude
Exits shadow 02:46:39 19° 188° (S) 1,803 5.4 -15.2°
Maximum altitude 02:50:32 72° 107° (ESE) 826 4.2 -14.8°
Drops below altitude 10° 02:55:51 10° 24° (NNE) 2,350 7.8 -14.1°
Sets 02:58:15 0° 23° (NNE) 3,280 8.7 -13.9°
